Flag for United Kingdom Weather past 2 weeks in Newport, Wales, United Kingdom

Now
39 °F

Passing clouds.


Feels Like: 33 °F
Forecast: N/A
Wind: 9 mph from West

Location: Bristol / Lulsgate

Current Time: Mar 4, 2015 at 8:26:35 PM

Latest Report: Mar 4, 2015 at 7:50 PM


Visibility: N/A

Pressure: 30.63 "Hg

Humidity: 70%

Dew point: 30 °F

Location of NewportLocation

Historic Weather in Newport — Graph

°F

Newport temperature yesterday

Maximum temperature yesterday: 43 °F (at 11:20 AM)
Minimum temperature yesterday: 36 °F (at 12:20 AM)
Average temperature yesterday: 39 °F

Past Weeks' High & Low Weather Summary

 TemperatureHumidityPressure
High52 °F (Feb 25, 1:20 PM)100% (Feb 19, 11:20 AM)30.74 "Hg (Feb 19, 11:20 AM)
Low32 °F (Feb 22, 1:20 AM)50% (Mar 4, 2:20 PM)29.24 "Hg (Feb 23, 12:50 PM)
Average41 °F85%29.87 "Hg
* Reported Feb 17 7:20 PM — Mar 4 7:20 PM, Newport, Weather by CustomWeather, © 2015

Note: Actual official high and low records may vary slightly from our data, if they occured in-between our weather recording intervals... More about our weather records

Advertising

Newport weather history for previous 24 hours

 ConditionsComfort  
Time TempWeatherWind HumidityBarometerVisibility
7:20 PM
Wed, Mar 4
39 °FClear.10 mph70%30.63 "Hg10 mi
6:50 PM41 °FClear.9 mph66%30.60 "Hg10 mi
6:20 PM41 °FPassing clouds.13 mph66%30.60 "HgN/A
5:50 PM43 °FPassing clouds.13 mph61%30.60 "HgN/A
5:20 PM43 °FPassing clouds.8 mph61%30.57 "HgN/A
4:50 PM45 °FPassing clouds.10 mph53%30.57 "HgN/A
4:20 PM46 °FPassing clouds.10 mph53%30.54 "HgN/A
3:50 PM48 °FPassing clouds.12 mph50%30.54 "HgN/A
3:20 PM46 °FPassing clouds.13 mph53%30.51 "HgN/A
2:50 PM48 °FPassing clouds.13 mph50%30.51 "HgN/A
2:20 PM48 °FScattered clouds.16 mph50%30.51 "HgN/A
1:50 PM48 °FPassing clouds.15 mph54%30.48 "HgN/A
1:20 PM48 °FPassing clouds.17 mph54%30.48 "HgN/A
12:50 PM46 °FPassing clouds.16 mph57%30.48 "HgN/A
12:20 PM45 °FPassing clouds.17 mph61%30.48 "HgN/A
11:50 AM45 °FPassing clouds.23 mph61%30.45 "HgN/A
11:20 AM45 °FPassing clouds.21 mph61%30.45 "HgN/A
10:50 AM43 °FPassing clouds.20 mph66%30.45 "HgN/A
10:20 AM41 °FPassing clouds.16 mph76%30.42 "HgN/A
9:50 AM41 °FPassing clouds.18 mph76%30.42 "HgN/A
9:20 AM39 °FPassing clouds.18 mph81%30.39 "HgN/A
8:50 AM39 °FPassing clouds.20 mph81%30.39 "HgN/A
8:20 AM37 °FPassing clouds.21 mph87%30.36 "HgN/A
7:50 AM36 °FPassing clouds.20 mph87%30.33 "HgN/A
7:20 AM36 °FPassing clouds.16 mph87%30.33 "HgN/A
6:50 AM36 °FPassing clouds.14 mph87%30.33 "HgN/A
6:20 AM36 °FPassing clouds.13 mph87%30.30 "HgN/A
5:50 AM36 °FPassing clouds.12 mph87%30.30 "HgN/A
5:20 AM36 °FPassing clouds.18 mph87%30.27 "HgN/A
4:50 AM37 °FPassing clouds.17 mph81%30.27 "HgN/A
4:20 AM36 °FPassing clouds.17 mph87%30.24 "HgN/A
3:50 AM36 °FPassing clouds.12 mph87%30.24 "HgN/A
3:20 AM37 °FPassing clouds.15 mph87%30.24 "HgN/A
2:50 AM37 °FPassing clouds.13 mph87%30.21 "HgN/A
2:20 AM37 °FPassing clouds.12 mph87%30.21 "HgN/A
1:50 AM37 °FPassing clouds.14 mph87%30.21 "HgN/A
1:20 AM37 °FPassing clouds.15 mph87%30.21 "HgN/A
12:50 AM37 °FPassing clouds.15 mph87%30.18 "HgN/A
12:20 AM37 °FPassing clouds.15 mph87%30.18 "HgN/A
11:50 PM
Tue, Mar 3
37 °FPassing clouds.15 mph87%30.18 "HgN/A
11:20 PM37 °FPassing clouds.17 mph87%30.18 "HgN/A
10:50 PM37 °FPassing clouds.17 mph87%30.18 "HgN/A
10:20 PM37 °FPassing clouds.15 mph87%30.15 "HgN/A
9:20 PM39 °FPassing clouds.18 mph75%30.15 "HgN/A
8:50 PM39 °FPassing clouds.20 mph75%30.12 "HgN/A
8:20 PM39 °FPassing clouds.18 mph75%30.12 "HgN/A
Weather by CustomWeather, © 2015

See weather overviewHow to use our weather pages